Home > Weather > Zielona Góra > Past weeks

Flag for Poland Past Weather in Zielona Góra, Poland — Yesterday and Last 2 Weeks

Now
67 °F

Passing clouds.


Feels Like: 67 °F
Forecast: 58 / 81 °F
Wind: 2 mph from Southwest

Location: Zielona Gora

Current Time: Jul 1, 2016 at 10:09:37 AM

Latest Report: Jul 1, 2016 at 9:00 AM


Visibility: 16 mi

Pressure: 30.01 "Hg

Humidity: 84%

Dew Point: 62 °F

Location of Zielona GóraLocation

Past Weather in Zielona Góra — Graph

°F

Zielona Góra Temperature Yesterday

Maximum temperature yesterday: 75 °F (at 2:00 PM)
Minimum temperature yesterday: 60 °F (at 5:00 AM)
Average temperature yesterday: 68 °F

High & Low Weather Summary for the Past Weeks

 TemperatureHumidityPressure
High90 °F (Jun 24, 5:00 PM)99% (Jun 17, 11:00 AM)30.28 "Hg (Jun 17, 11:00 AM)
Low53 °F (Jun 18, 6:00 AM)34% (Jun 24, 5:00 PM)29.41 "Hg (Jun 17, 8:00 AM)
Average67 °F72%30.00 "Hg
* Reported Jun 16 8:00 AM — Jul 1 8:00 AM, Zielona Góra, Weather by CustomWeather, © 2016

Note: Actual official high and low records may vary slightly from our data, if they occured in-between our weather recording intervals... More about our weather records

Advertising

Zielona Góra Weather History for the Previous 24 Hours

Scroll right to see more
 ConditionsComfort  
Time TempWeatherWind HumidityBarometerVisibility
8:00 AM
Fri, Jul 1
64 °FPassing clouds.2 mph91%30.00 "Hg12 mi
7:00 AM62 °FOvercast.2 mph93%30.00 "Hg12 mi
6:00 AM60 °FPartly sunny.1 mph96%30.00 "Hg12 mi
5:00 AM59 °FPassing clouds.2 mph97%29.99 "Hg12 mi
4:00 AM60 °FPassing clouds.1 mph95%29.98 "Hg19 mi
3:00 AM60 °FPassing clouds.2 mph94%29.99 "Hg22 mi
2:00 AM60 °FPassing clouds.2 mph94%29.99 "Hg22 mi
1:00 AM61 °FPassing clouds.2 mph96%29.99 "Hg22 mi
12:00 AM62 °FPassing clouds.2 mph95%29.99 "Hg16 mi
11:00 PM
Thu, Jun 30
64 °FOvercast.1 mph89%29.98 "Hg25 mi
10:00 PM67 °FPassing clouds.1 mph78%29.98 "Hg25 mi
9:00 PM68 °FScattered clouds.1 mph72%29.96 "Hg25 mi
8:00 PM72 °FPartly sunny.2 mph60%29.95 "Hg28 mi
7:00 PM73 °FOvercast.2 mph57%29.94 "Hg31 mi
6:00 PM73 °FOvercast.2 mph60%29.94 "Hg31 mi
5:00 PM72 °FSprinkles. Overcast.2 mph59%29.95 "Hg25 mi
4:00 PM75 °FOvercast.3 mph60%29.93 "Hg28 mi
3:00 PM74 °FOvercast.3 mph67%29.93 "Hg28 mi
2:00 PM75 °FOvercast.3 mph61%29.93 "Hg28 mi
1:00 PM74 °FOvercast.3 mph63%29.95 "Hg28 mi
12:00 PM74 °FOvercast.3 mph61%29.94 "Hg25 mi
11:00 AM70 °FOvercast.2 mph63%29.94 "Hg25 mi
10:00 AM69 °FOvercast.2 mph72%29.93 "Hg25 mi
Weather by CustomWeather, © 2016

See weather overviewHow to use our weather pages